Regional Weather Roundup
Issued by NWS

Home | Current Version | Previous Version | Text Only | Print | Product List | Glossary On
Versions: 1 2 3 4 5 6 7 8 9 10 11 12 13 14 15 16 17 18 19 20 21 22 23 24 25 26 27 28 29 30 31 32 33 34 35 36 37 38 39 40 41 42 43 44 45 46 47 48 49 50
000
ASUS44 KOUN 300310
RWROK

WEATHER ROUNDUP FOR OKLAHOMA
NATIONAL WEATHER SERVICE NORMAN OK
1000 PM CDT FRI JUL 29 2016

NOTE: "FAIR" INDICATES FEW OR NO CLOUDS BELOW 12,000 FEET WITH NO
      SIGNIFICANT WEATHER AND/OR OBSTRUCTIONS TO VISIBILITY.

OKZ001>007-009>012-014-015-017-300400-
NORTHWEST OKLAHOMA AND THE PANHANDLE

CITY           SKY/WX    TMP DP  RH WIND       PRES   REMARKS
GAGE           PTCLDY    77  67  71 E7        30.02R
GUYMON         CLOUDY    79  63  57 E8        30.03R
ENID/WOODRING  CLEAR     73  68  83 SE3       29.98R
$$

OKZ016-021>023-033>039-044-045-300400-
SOUTHWEST OKLAHOMA

CITY           SKY/WX    TMP DP  RH WIND       PRES   REMARKS
LAWTON/REGL    CLEAR     82  69  64 NE9       29.95R
LAWTON/FT SILL CLEAR     80  71  74 NE7       29.95R
FREDERICK      CLEAR     85  69  58 E12       29.92R
CLINTON        CLOUDY    78  67  68 E7        30.02R
HOBART         CLEAR     78  69  73 E9        29.99R
ALTUS AFB      CLEAR     81  66  60 NE7       29.97R
$$

OKZ018>020-024>031-300400-
CENTRAL OKLAHOMA

CITY           SKY/WX    TMP DP  RH WIND       PRES   REMARKS
OKLAHOMA CITY  PTCLDY    78  68  71 NE6       29.98R
OKC/WILEY POST CLEAR     78  69  73 NE7       29.98R
OKC/TINKER AFB CLEAR     75  67  77 NE3       29.97R
STILLWATER     CLEAR     73  69  87 NE3       29.97R
GUTHRIE        CLEAR     77  69  76 E6        29.97R
$$

OKZ008-013-054>072-300400-
NORTHEAST OKLAHOMA

CITY           SKY/WX    TMP DP  RH WIND       PRES   REMARKS
TULSA          PTCLDY    82  66  58 NE3       29.95R
TULSA/JONES    CLEAR     77  70  79 N3        29.96R
PONCA CITY     CLEAR     78  66  66 CALM      29.97R
BARTLESVILLE   CLEAR     73  71  93 CALM      29.97R
MUSKOGEE       CLEAR     79  70  74 NE5       29.96R
$$

OKZ032-040>043-046>053-073>077-300400-
SOUTH CENTRAL/SOUTHEAST OKLAHOMA

CITY           SKY/WX    TMP DP  RH WIND       PRES   REMARKS
ARDMORE/DWNTWN PTCLDY    82  72  69 CALM      29.93R
MCALESTER      CLOUDY    80  71  74 E3        29.97R
$$




USA.gov is the U.S. government's official web portal to all federal, state and local government web resources and services.